| time (UTC) | temp F | wind direction | speed knots | gust knots | rain 1hr in | rain 24hr in | rain mn in | humidity % | barometer mb |
| 20260506221954 | 45 | 284 | 0.9 | 3.5 | 0.00 | 0.72 | 0.35 | 89 | 1008.5 |
| 20260506221454 | 45 | 326 | 0.9 | 3.5 | 0.00 | 0.72 | 0.35 | 88 | 1008.4 |
| 20260506220954 | 45 | 325 | 0.9 | 3.5 | 0.00 | 0.72 | 0.35 | 90 | 1008.3 |
| 20260506220454 | 45 | 268 | 0.9 | 3.5 | 0.00 | 0.72 | 0.35 | 89 | 1008.3 |
| 20260506215454 | 45 | 330 | 0.0 | 3.5 | 0.00 | 0.72 | 0.35 | 89 | 1008.2 |
| 20260506214454 | 46 | 320 | 0.0 | 2.6 | 0.00 | 0.72 | 0.35 | 90 | 1008.2 |
| 20260506213454 | 45 | 323 | 2.6 | 3.5 | 0.00 | 0.72 | 0.35 | 89 | 1008.2 |
| 20260506212954 | 46 | 323 | 0.9 | 4.3 | 0.00 | 0.72 | 0.35 | 89 | 1008.2 |
| 20260506212454 | 46 | 281 | 0.9 | 4.3 | 0.00 | 0.72 | 0.35 | 89 | 1008.2 |
| 20260506211954 | 45 | 354 | 0.0 | 2.6 | 0.00 | 0.72 | 0.35 | 90 | 1008.3 |
| 20260506211454 | 45 | 291 | 1.7 | 2.6 | 0.00 | 0.72 | 0.35 | 90 | 1008.2 |
| 20260506210954 | 45 | 309 | 2.6 | 2.6 | 0.00 | 0.72 | 0.35 | 90 | 1008.2 |
| 20260506210454 | 45 | 321 | 1.7 | 4.3 | 0.00 | 0.72 | 0.35 | 91 | 1008.2 |
| 20260506205953 | 45 | 306 | 0.9 | 4.3 | 0.00 | 0.72 | 0.35 | 90 | 1008.1 |
| 20260506205453 | 45 | 2 | 3.5 | 3.5 | 0.00 | 0.72 | 0.35 | 91 | 1008.0 |
| 20260506204953 | 45 | 271 | 0.0 | 3.5 | 0.00 | 0.72 | 0.35 | 91 | 1007.9 |
| 20260506204453 | 45 | 61 | 0.9 | 2.6 | 0.00 | 0.72 | 0.35 | 91 | 1007.8 |
| 20260506203953 | 45 | 11 | 0.0 | 2.6 | 0.00 | 0.72 | 0.35 | 92 | 1007.8 |
| 20260506203453 | 45 | 297 | 0.0 | 2.6 | 0.00 | 0.72 | 0.35 | 91 | 1007.7 |
| 20260506202953 | 45 | 307 | 0.0 | 3.5 | 0.00 | 0.72 | 0.35 | 92 | 1007.8 |
| 20260506202453 | 45 | 311 | 1.7 | 3.5 | 0.00 | 0.72 | 0.35 | 91 | 1007.9 |
| 20260506200953 | 45 | 240 | 0.9 | 5.2 | 0.00 | 0.72 | 0.35 | 92 | 1007.6 |
| 20260506200453 | 45 | 330 | 0.9 | 3.5 | 0.00 | 0.72 | 0.35 | 91 | 1007.7 |
| 20260506195453 | 45 | 243 | 0.0 | 2.6 | 0.00 | 0.72 | 0.35 | 93 | 1007.5 |
| 20260506194953 | 44 | 93 | 0.0 | 3.5 | 0.00 | 0.72 | 0.35 | 93 | 1007.5 |
| 20260506194454 | 44 | 276 | 0.0 | 5.2 | 0.00 | 0.72 | 0.35 | 93 | 1007.7 |
| 20260506193953 | 44 | 340 | 1.7 | 5.2 | 0.00 | 0.72 | 0.35 | 93 | 1007.9 |
| 20260506192952 | 44 | 300 | 0.9 | 3.5 | 0.00 | 0.72 | 0.35 | 94 | 1007.9 |
| 20260506192452 | 44 | 354 | 0.0 | 5.2 | 0.00 | 0.72 | 0.35 | 94 | 1007.9 |
| 20260506191952 | 45 | 281 | 0.9 | 5.2 | 0.00 | 0.72 | 0.35 | 93 | 1007.9 |
| 20260506191452 | 45 | 264 | 2.6 | 4.3 | 0.00 | 0.72 | 0.35 | 94 | 1007.7 |
| 20260506190952 | 45 | 330 | 0.9 | 3.5 | 0.00 | 0.72 | 0.35 | 94 | 1007.8 |
| 20260506190452 | 45 | 283 | 0.9 | 4.3 | 0.00 | 0.72 | 0.35 | 94 | 1007.6 |
| 20260506185952 | 44 | 306 | 0.9 | 4.3 | 0.00 | 0.72 | 0.35 | 94 | 1007.6 |
| 20260506185452 | 44 | 282 | 0.9 | 4.3 | 0.00 | 0.72 | 0.35 | 94 | 1007.6 |
| 20260506184451 | 44 | 297 | 0.0 | 3.5 | 0.00 | 0.72 | 0.35 | 94 | 1007.7 |
| 20260506183952 | 44 | 68 | 1.7 | 3.5 | 0.00 | 0.72 | 0.35 | 95 | 1007.7 |
| 20260506183452 | 44 | 326 | 0.0 | 4.3 | 0.00 | 0.72 | 0.35 | 95 | 1007.7 |
| 20260506182952 | 44 | 304 | 2.6 | 4.3 | 0.00 | 0.72 | 0.35 | 94 | 1007.7 |
| 20260506182452 | 44 | 316 | 0.0 | 4.3 | 0.00 | 0.72 | 0.35 | 94 | 1007.5 |
| 20260506181953 | 44 | 238 | 0.0 | 2.6 | 0.00 | 0.72 | 0.35 | 94 | 1007.5 |
| 20260506181451 | 44 | 17 | 0.0 | 3.5 | 0.00 | 0.72 | 0.35 | 94 | 1007.7 |
| 20260506180951 | 44 | 349 | 0.9 | 4.3 | 0.00 | 0.72 | 0.35 | 94 | 1007.5 |
| 20260506180451 | 44 | 314 | 1.7 | 4.3 | 0.00 | 0.72 | 0.35 | 94 | 1007.5 |
| 20260506175952 | 44 | 323 | 1.7 | 2.6 | 0.00 | 0.72 | 0.35 | 94 | 1007.6 |
| 20260506174951 | 44 | 307 | 0.0 | 3.5 | 0.01 | 0.72 | 0.35 | 95 | 1007.3 |
| 20260506173951 | 44 | 273 | 1.7 | 4.3 | 0.01 | 0.72 | 0.35 | 95 | 1007.5 |
| 20260506173451 | 44 | 300 | 2.6 | 6.1 | 0.01 | 0.72 | 0.35 | 94 | 1007.4 |
| 20260506172953 | 44 | 58 | 0.0 | 6.1 | 0.02 | 0.72 | 0.35 | 94 | 1007.6 |
| 20260506172451 | 44 | 50 | 0.0 | 4.3 | 0.02 | 0.72 | 0.35 | 94 | 1007.6 |
| 20260506171951 | 44 | 281 | 0.0 | 4.3 | 0.02 | 0.72 | 0.35 | 95 | 1007.5 |
| 20260506171451 | 43 | 360 | 3.5 | 5.2 | 0.02 | 0.80 | 0.35 | 95 | 1007.4 |
| 20260506170451 | 43 | 300 | 0.9 | 4.3 | 0.03 | 0.81 | 0.35 | 95 | 1007.4 |
| 20260506165952 | 43 | 322 | 0.0 | 5.2 | 0.03 | 0.81 | 0.35 | 95 | 1007.5 |
| 20260506165451 | 43 | 324 | 0.0 | 6.1 | 0.02 | 0.80 | 0.34 | 95 | 1007.6 |
| 20260506164951 | 43 | 307 | 2.6 | 6.1 | 0.02 | 0.80 | 0.34 | 95 | 1007.7 |
| 20260506163950 | 44 | 58 | 0.0 | 4.3 | 0.02 | 0.80 | 0.34 | 95 | 1008.0 |
| 20260506163450 | 44 | 281 | 0.0 | 4.3 | 0.02 | 0.80 | 0.34 | 95 | 1008.0 |
| 20260506162950 | 44 | 101 | 0.9 | 1.7 | 0.01 | 0.79 | 0.33 | 95 | 1008.0 |
| 20260506162451 | 43 | 290 | 0.0 | 4.3 | 0.01 | 0.79 | 0.33 | 95 | 1008.1 |
| 20260506161450 | 43 | 36 | 1.7 | 2.6 | 0.02 | 0.79 | 0.33 | 95 | 1008.2 |
| 20260506160952 | 43 | 350 | 1.7 | 4.3 | 0.02 | 0.79 | 0.33 | 94 | 1008.1 |
| 20260506155950 | 44 | 281 | 0.0 | 3.5 | 0.01 | 0.78 | 0.32 | 95 | 1008.3 |
| 20260506155450 | 44 | 282 | 0.0 | 3.5 | 0.01 | 0.78 | 0.32 | 95 | 1008.2 |
| 20260506154950 | 43 | 334 | 1.7 | 3.5 | 0.01 | 0.78 | 0.32 | 95 | 1008.1 |
| 20260506154450 | 43 | 288 | 0.0 | 3.5 | 0.01 | 0.78 | 0.32 | 95 | 1008.1 |
| 20260506153950 | 43 | 9 | 0.0 | 5.2 | 0.01 | 0.78 | 0.32 | 95 | 1008.0 |
| 20260506152950 | 43 | 296 | 0.0 | 4.3 | 0.01 | 0.78 | 0.32 | 96 | 1008.2 |
| 20260506152450 | 43 | 56 | 0.0 | 4.3 | 0.01 | 0.78 | 0.32 | 95 | 1008.1 |
| 20260506151950 | 43 | 46 | 0.0 | 4.3 | 0.00 | 0.77 | 0.31 | 96 | 1008.1 |
| 20260506151450 | 43 | 96 | 1.7 | 4.3 | 0.00 | 0.77 | 0.31 | 95 | 1007.9 |
| 20260506150950 | 43 | 38 | 0.0 | 3.5 | 0.00 | 0.77 | 0.31 | 95 | 1008.0 |
| 20260506145950 | 43 | 60 | 2.6 | 3.5 | 0.00 | 0.77 | 0.31 | 96 | 1007.9 |
| 20260506145450 | 43 | 314 | 0.0 | 1.7 | 0.00 | 0.77 | 0.31 | 95 | 1008.1 |
| 20260506144950 | 42 | 220 | 0.0 | 1.7 | 0.00 | 0.77 | 0.31 | 96 | 1008.0 |
| 20260506144449 | 42 | 271 | 0.9 | 1.7 | 0.00 | 0.77 | 0.31 | 96 | 1008.1 |
| 20260506143950 | 42 | 310 | 0.0 | 2.6 | 0.00 | 0.77 | 0.31 | 96 | 1008.0 |
| 20260506143449 | 42 | 299 | 0.0 | 2.6 | 0.00 | 0.77 | 0.31 | 96 | 1008.0 |
| 20260506142949 | 42 | 18 | 0.9 | 2.6 | 0.00 | 0.77 | 0.31 | 96 | 1008.2 |
| 20260506142449 | 42 | 324 | 0.9 | 1.7 | 0.00 | 0.77 | 0.31 | 95 | 1008.1 |
| 20260506141949 | 42 | 319 | 0.0 | 0.9 | 0.00 | 0.77 | 0.31 | 96 | 1008.2 |
| 20260506141449 | 42 | 91 | 0.0 | 0.9 | 0.00 | 0.77 | 0.31 | 96 | 1008.2 |
| 20260506140949 | 42 | 143 | 0.0 | 1.7 | 0.00 | 0.77 | 0.31 | 96 | 1008.1 |
| 20260506140449 | 42 | 67 | 0.0 | 1.7 | 0.00 | 0.77 | 0.31 | 96 | 1008.1 |
| 20260506135950 | 42 | 290 | 0.0 | 1.7 | 0.01 | 0.77 | 0.31 | 96 | 1008.1 |
| 20260506135449 | 42 | 51 | 1.7 | 1.7 | 0.01 | 0.77 | 0.31 | 96 | 1008.2 |
| 20260506134949 | 42 | 307 | 0.9 | 0.9 | 0.02 | 0.77 | 0.31 | 96 | 1008.1 |
| 20260506133949 | 42 | 274 | 0.9 | 1.7 | 0.02 | 0.77 | 0.31 | 96 | 1008.1 |
| 20260506132949 | 42 | 18 | 0.0 | 1.7 | 0.03 | 0.77 | 0.31 | 96 | 1008.0 |
| 20260506132449 | 42 | 71 | 0.0 | 3.5 | 0.03 | 0.77 | 0.31 | 96 | 1008.1 |
| 20260506131949 | 42 | 359 | 0.0 | 3.5 | 0.03 | 0.78 | 0.31 | 96 | 1008.1 |
| 20260506131449 | 42 | 65 | 1.7 | 1.7 | 0.04 | 0.78 | 0.31 | 96 | 1008.0 |
| 20260506130949 | 42 | 75 | 0.0 | 0.9 | 0.04 | 0.78 | 0.31 | 96 | 1008.1 |
| 20260506130449 | 42 | 265 | 0.0 | 3.5 | 0.04 | 0.78 | 0.31 | 96 | 1008.2 |
| 20260506125948 | 42 | 313 | 0.0 | 3.5 | 0.04 | 0.77 | 0.30 | 96 | 1008.2 |
| 20260506125448 | 42 | 293 | 0.0 | 1.7 | 0.04 | 0.77 | 0.30 | 96 | 1008.2 |
| 20260506124948 | 42 | 308 | 0.9 | 0.9 | 0.04 | 0.76 | 0.29 | 96 | 1007.9 |
| 20260506123948 | 42 | 343 | 0.0 | 1.7 | 0.05 | 0.76 | 0.29 | 96 | 1007.9 |
| 20260506122448 | 42 | 340 | 0.0 | 1.7 | 0.04 | 0.77 | 0.28 | 96 | 1008.3 |
| 20260506121948 | 42 | 283 | 0.0 | 1.7 | 0.05 | 0.77 | 0.28 | 96 | 1008.3 |
| 20260506121448 | 42 | 16 | 0.9 | 1.7 | 0.04 | 0.76 | 0.27 | 96 | 1008.1 |
| 20260506120948 | 42 | 1 | 0.0 | 0.0 | 0.04 | 0.76 | 0.27 | 96 | 1008.1 |
| 20260506120449 | 42 | 28 | 0.0 | 0.0 | 0.05 | 0.76 | 0.27 | 96 | 1008.2 |
| 20260506114448 | 42 | 75 | 0.0 | 0.0 | 0.06 | 0.74 | 0.25 | 96 | 1009.0 |
| 20260506113948 | 42 | 75 | 0.0 | 0.0 | 0.06 | 0.73 | 0.24 | 97 | 1009.0 |
| 20260506113448 | 42 | 76 | 0.0 | 1.7 | 0.07 | 0.73 | 0.24 | 96 | 1008.9 |
| 20260506112448 | 42 | 27 | 0.9 | 1.7 | 0.09 | 0.73 | 0.24 | 96 | 1008.5 |
| 20260506111448 | 42 | 92 | 0.0 | 0.9 | 0.09 | 0.72 | 0.23 | 97 | 1008.8 |
| 20260506110948 | 42 | 90 | 0.0 | 0.9 | 0.11 | 0.72 | 0.23 | 97 | 1008.8 |
| 20260506110447 | 42 | 98 | 0.0 | 0.9 | 0.10 | 0.71 | 0.22 | 97 | 1008.9 |
| 20260506105449 | 42 | 344 | 0.0 | 0.9 | 0.10 | 0.69 | 0.20 | 98 | 1009.0 |
| 20260506104947 | 42 | 321 | 0.0 | 0.0 | 0.09 | 0.68 | 0.19 | 98 | 1009.1 |
| 20260506104447 | 42 | 321 | 0.0 | 0.0 | 0.10 | 0.68 | 0.19 | 98 | 1009.1 |
| 20260506103947 | 42 | 321 | 0.0 | 0.0 | 0.09 | 0.67 | 0.18 | 97 | 1009.2 |
| 20260506102947 | 42 | 322 | 0.0 | 0.0 | 0.08 | 0.66 | 0.16 | 97 | 1009.3 |
| 20260506102447 | 43 | 323 | 0.0 | 0.0 | 0.07 | 0.65 | 0.15 | 97 | 1008.8 |
| 20260506101947 | 43 | 323 | 0.0 | 0.0 | 0.06 | 0.64 | 0.14 | 97 | 1008.5 |
| 20260506101448 | 43 | 323 | 0.0 | 0.0 | 0.06 | 0.64 | 0.14 | 97 | 1008.3 |
| 20260506100947 | 43 | 323 | 0.0 | 0.0 | 0.05 | 0.62 | 0.12 | 97 | 1008.2 |
| 20260506100447 | 43 | 323 | 0.0 | 0.0 | 0.05 | 0.62 | 0.12 | 98 | 1008.2 |
| 20260506095947 | 43 | 323 | 0.0 | 0.0 | 0.04 | 0.61 | 0.11 | 98 | 1008.3 |
| 20260506095447 | 43 | 323 | 0.0 | 0.0 | 0.03 | 0.61 | 0.10 | 97 | 1008.3 |
| 20260506094947 | 43 | 322 | 0.0 | 0.0 | 0.03 | 0.62 | 0.10 | 98 | 1008.4 |
| 20260506094449 | 43 | 322 | 0.0 | 0.0 | 0.02 | 0.62 | 0.09 | 98 | 1008.4 |
| 20260506093947 | 43 | 322 | 0.0 | 0.0 | 0.02 | 0.62 | 0.09 | 98 | 1008.3 |
| 20260506093447 | 43 | 322 | 0.0 | 0.0 | 0.02 | 0.62 | 0.09 | 98 | 1008.3 |
| 20260506092947 | 43 | 322 | 0.0 | 0.0 | 0.01 | 0.61 | 0.08 | 98 | 1008.3 |
| 20260506092447 | 43 | 322 | 0.0 | 0.9 | 0.01 | 0.61 | 0.08 | 97 | 1008.3 |
| 20260506091948 | 43 | 322 | 0.0 | 0.9 | 0.01 | 0.61 | 0.08 | 97 | 1008.5 |
| 20260506091447 | 43 | 95 | 0.0 | 0.0 | 0.01 | 0.61 | 0.08 | 98 | 1008.8 |
| 20260506090447 | 43 | 105 | 0.0 | 0.0 | 0.00 | 0.60 | 0.07 | 97 | 1008.6 |
| 20260506085946 | 43 | 105 | 0.0 | 0.0 | 0.00 | 0.60 | 0.07 | 98 | 1008.7 |
| 20260506085446 | 43 | 105 | 0.0 | 0.9 | 0.00 | 0.60 | 0.07 | 98 | 1009.0 |
| 20260506084948 | 43 | 105 | 0.0 | 0.9 | 0.00 | 0.60 | 0.07 | 97 | 1009.0 |
| 20260506084446 | 43 | 105 | 0.0 | 0.9 | 0.00 | 0.60 | 0.07 | 98 | 1009.1 |
| 20260506083446 | 44 | 260 | 0.0 | 0.9 | 0.00 | 0.60 | 0.07 | 98 | 1009.3 |
| 20260506082946 | 44 | 260 | 0.0 | 0.0 | 0.00 | 0.60 | 0.07 | 98 | 1009.5 |
| 20260506082446 | 44 | 260 | 0.0 | 0.0 | 0.00 | 0.60 | 0.07 | 98 | 1009.5 |
| 20260506081946 | 44 | 260 | 0.0 | 0.0 | 0.00 | 0.60 | 0.07 | 98 | 1009.2 |
| 20260506081446 | 44 | 260 | 0.0 | 0.0 | 0.00 | 0.60 | 0.07 | 98 | 1009.3 |
| 20260506080946 | 43 | 260 | 0.0 | 0.0 | 0.00 | 0.60 | 0.07 | 98 | 1009.3 |
| 20260506080446 | 43 | 261 | 0.0 | 0.0 | 0.00 | 0.60 | 0.07 | 97 | 1009.4 |
| 20260506072946 | 43 | 321 | 0.0 | 0.0 | 0.01 | 0.61 | 0.07 | 97 | 1009.3 |
| 20260506072446 | 44 | 321 | 0.0 | 0.9 | 0.01 | 0.61 | 0.07 | 97 | 1009.3 |
| 20260506071946 | 44 | 321 | 0.0 | 0.9 | 0.01 | 0.61 | 0.07 | 97 | 1009.2 |
| 20260506071446 | 44 | 56 | 0.0 | 0.9 | 0.01 | 0.61 | 0.07 | 97 | 1009.0 |
| 20260506070947 | 44 | 341 | 0.0 | 0.0 | 0.01 | 0.61 | 0.07 | 97 | 1009.2 |
| 20260506070446 | 44 | 340 | 0.0 | 0.0 | 0.01 | 0.61 | 0.07 | 97 | 1009.6 |
| 20260506062445 | 44 | 86 | 0.0 | 0.9 | 0.01 | 0.60 | 0.06 | 96 | 1008.9 |
| 20260506061945 | 44 | 169 | 0.0 | 1.7 | 0.01 | 0.60 | 0.06 | 96 | 1009.3 |
| 20260506061445 | 44 | 141 | 0.0 | 1.7 | 0.01 | 0.60 | 0.06 | 96 | 1009.1 |
| 20260506060947 | 44 | 88 | 0.0 | 1.7 | 0.01 | 0.60 | 0.06 | 96 | 1009.3 |
| 20260506060445 | 44 | 153 | 0.0 | 0.0 | 0.01 | 0.60 | 0.06 | 96 | 1009.6 |
| 20260506050945 | 45 | 162 | 0.0 | 0.0 | 0.04 | 0.59 | 0.05 | 96 | 1009.8 |
| 20260506050445 | 45 | 162 | 0.0 | 0.0 | 0.05 | 0.59 | 0.05 | 96 | 1009.8 |
| 20260506044944 | 45 | 162 | 0.0 | 0.9 | 0.05 | 0.59 | 0.05 | 96 | 1009.9 |
| 20260506044445 | 45 | 169 | 0.0 | 0.9 | 0.06 | 0.59 | 0.05 | 96 | 1009.8 |
| 20260506043945 | 45 | 165 | 0.0 | 0.0 | 0.05 | 0.58 | 0.04 | 96 | 1010.0 |
| 20260506043444 | 45 | 156 | 0.0 | 1.7 | 0.06 | 0.58 | 0.04 | 96 | 1009.9 |
| 20260506042444 | 45 | 95 | 0.0 | 0.9 | 0.05 | 0.56 | 0.02 | 96 | 1009.8 |
| 20260506041944 | 45 | 94 | 0.0 | 0.9 | 0.06 | 0.56 | 0.02 | 95 | 1009.8 |
| 20260506040444 | 46 | 137 | 0.0 | 1.7 | 0.05 | 0.54 | 0.00 | 95 | 1010.2 |
| 20260506035444 | 46 | 171 | 0.0 | 2.6 | 0.06 | 0.54 | 0.54 | 96 | 1010.3 |
| 20260506034944 | 46 | 155 | 0.0 | 2.6 | 0.06 | 0.54 | 0.54 | 96 | 1010.3 |
| 20260506034444 | 46 | 54 | 0.0 | 2.6 | 0.06 | 0.53 | 0.53 | 95 | 1010.1 |
| 20260506033944 | 46 | 160 | 0.9 | 2.6 | 0.06 | 0.53 | 0.53 | 96 | 1010.2 |
| 20260506032944 | 46 | 245 | 0.0 | 1.7 | 0.07 | 0.52 | 0.52 | 95 | 1009.7 |
| 20260506032444 | 46 | 307 | 1.7 | 1.7 | 0.07 | 0.51 | 0.51 | 95 | 1009.6 |
| 20260506031944 | 46 | 208 | 0.9 | 1.7 | 0.07 | 0.50 | 0.50 | 95 | 1009.5 |
| 20260506030944 | 46 | 229 | 0.0 | 0.9 | 0.08 | 0.49 | 0.49 | 95 | 1009.7 |
| 20260506030443 | 46 | 229 | 0.0 | 0.9 | 0.09 | 0.49 | 0.49 | 95 | 1009.5 |
| 20260506025944 | 47 | 117 | 0.0 | 0.9 | 0.11 | 0.49 | 0.49 | 95 | 1009.3 |
| 20260506025443 | 47 | 245 | 0.0 | 0.9 | 0.11 | 0.48 | 0.48 | 95 | 1009.6 |
| 20260506024943 | 47 | 245 | 0.0 | 0.9 | 0.12 | 0.48 | 0.48 | 94 | 1009.5 |
| 20260506024443 | 47 | 245 | 0.0 | 0.9 | 0.12 | 0.47 | 0.47 | 94 | 1009.7 |
| 20260506023943 | 47 | 244 | 0.0 | 2.6 | 0.13 | 0.47 | 0.47 | 94 | 1009.6 |
| 20260506023443 | 47 | 245 | 0.0 | 2.6 | 0.14 | 0.46 | 0.46 | 94 | 1009.5 |
| 20260506022943 | 47 | 86 | 0.9 | 3.5 | 0.14 | 0.45 | 0.45 | 94 | 1009.6 |
| 20260506022443 | 47 | 103 | 0.0 | 3.5 | 0.14 | 0.44 | 0.44 | 94 | 1009.4 |
| 20260506021943 | 47 | 238 | 0.0 | 6.1 | 0.13 | 0.43 | 0.43 | 93 | 1009.6 |
| 20260506021443 | 48 | 280 | 0.0 | 6.1 | 0.14 | 0.42 | 0.42 | 93 | 1009.6 |
| 20260506020943 | 48 | 293 | 0.0 | 1.7 | 0.13 | 0.41 | 0.41 | 95 | 1009.5 |
| 20260506020443 | 48 | 327 | 0.0 | 0.0 | 0.14 | 0.40 | 0.40 | 95 | 1009.4 |
| 20260506015943 | 48 | 327 | 0.0 | 0.9 | 0.12 | 0.38 | 0.38 | 94 | 1009.3 |
| 20260506015443 | 48 | 326 | 0.0 | 1.7 | 0.12 | 0.37 | 0.37 | 94 | 1009.1 |
| 20260506014943 | 48 | 327 | 0.0 | 1.7 | 0.12 | 0.36 | 0.36 | 93 | 1008.9 |
| 20260506014443 | 48 | 293 | 0.0 | 3.5 | 0.12 | 0.35 | 0.35 | 93 | 1009.1 |
| 20260506013943 | 48 | 227 | 0.0 | 4.3 | 0.12 | 0.34 | 0.34 | 93 | 1009.2 |
| 20260506013443 | 49 | 63 | 0.9 | 4.3 | 0.11 | 0.32 | 0.32 | 94 | 1009.1 |
| 20260506012943 | 49 | 115 | 0.9 | 1.7 | 0.11 | 0.31 | 0.31 | 95 | 1009.1 |
| 20260506012443 | 49 | 237 | 0.0 | 0.0 | 0.10 | 0.30 | 0.30 | 94 | 1009.2 |
| 20260506011442 | 49 | 97 | 0.0 | 0.9 | 0.10 | 0.28 | 0.28 | 94 | 1009.1 |
| 20260506010443 | 49 | 255 | 0.0 | 1.7 | 0.08 | 0.26 | 0.26 | 93 | 1009.2 |
| 20260506005942 | 49 | 248 | 0.0 | 1.7 | 0.09 | 0.26 | 0.26 | 92 | 1009.1 |
| 20260506004942 | 50 | 76 | 0.0 | 3.5 | 0.07 | 0.24 | 0.24 | 91 | 1009.0 |
| 20260506003942 | 51 | 319 | 0.9 | 5.2 | 0.05 | 0.22 | 0.22 | 90 | 1009.1 |
| 20260506003442 | 51 | 250 | 1.7 | 3.5 | 0.04 | 0.21 | 0.21 | 89 | 1008.8 |
| 20260506002942 | 51 | 240 | 0.9 | 2.6 | 0.03 | 0.20 | 0.20 | 88 | 1008.6 |
| 20260506002442 | 52 | 301 | 0.0 | 3.5 | 0.03 | 0.20 | 0.20 | 86 | 1008.5 |
| 20260506001942 | 52 | 301 | 0.9 | 3.5 | 0.02 | 0.19 | 0.19 | 84 | 1008.3 |
| 20260506000942 | 54 | 288 | 2.6 | 6.1 | 0.01 | 0.18 | 0.18 | 80 | 1008.3 |
| 20260506000442 | 55 | 292 | 0.9 | 6.1 | 0.01 | 0.18 | 0.18 | 78 | 1007.9 |
| 20260505235942 | 56 | 304 | 3.5 | 7.0 | 0.00 | 0.17 | 0.17 | 74 | 1007.8 |
| 20260505234942 | 57 | 302 | 0.0 | 7.8 | 0.00 | 0.17 | 0.17 | 67 | 1007.7 |
| 20260505234442 | 58 | 291 | 2.6 | 7.8 | 0.00 | 0.17 | 0.17 | 66 | 1007.5 |
| 20260505233942 | 58 | 286 | 0.9 | 9.6 | 0.00 | 0.17 | 0.17 | 66 | 1007.1 |
| 20260505231441 | 59 | 222 | 7.0 | 9.6 | 0.00 | 0.17 | 0.17 | 66 | 1006.3 |
| 20260505230943 | 59 | 311 | 2.6 | 8.7 | 0.00 | 0.17 | 0.17 | 67 | 1006.3 |
| 20260505230441 | 59 | 252 | 2.6 | 8.7 | 0.00 | 0.17 | 0.17 | 66 | 1006.3 |
| 20260505225941 | 59 | 6 | 3.5 | 11.3 | 0.00 | 0.17 | 0.17 | 66 | 1006.3 |
| 20260505225441 | 59 | 307 | 8.7 | 11.3 | 0.00 | 0.17 | 0.17 | 66 | 1005.6 |
| 20260505224942 | 60 | 260 | 0.9 | 10.4 | 0.00 | 0.17 | 0.17 | 67 | 1005.5 |
| 20260505224441 | 60 | 318 | 4.3 | 9.6 | 0.00 | 0.17 | 0.17 | 69 | 1005.2 |
| 20260505223941 | 61 | 293 | 4.3 | 9.6 | 0.00 | 0.17 | 0.17 | 70 | 1005.3 |
| 20260505223441 | 61 | 7 | 4.3 | 9.6 | 0.00 | 0.17 | 0.17 | 73 | 1005.3 |
| 20260505222941 | 62 | 321 | 2.6 | 8.7 | 0.00 | 0.17 | 0.17 | 73 | 1005.3 |